Home > Time Zones > World Clock > Weather > Palau > Koror > Past weeks

Flag for Palau Weather past 2 weeks in Koror, Palau

Now
82 °F

Mostly cloudy.


Feels Like: 91 °F
Forecast: 79 / 88 °F
Wind: 13 mph from West

Location: Koror / Palau Island

Current Time: Apr 1, 2015 at 6:50:20 PM

Latest Report: Apr 1, 2015 at 5:51 PM


Visibility: 14 mi

Pressure: 29.73 "Hg

Humidity: 84%

Dew point: 77 °F

Location of KororLocation

Historic Weather in Koror — Graph

°F

Koror temperature yesterday

Maximum temperature yesterday: 88 °F (at 9:51 AM)
Minimum temperature yesterday: 77 °F (at 12:50 AM)
Average temperature yesterday: 82 °F

Past Weeks' High & Low Weather Summary

 TemperatureHumidityPressure
High88 °F (Mar 19, 12:50 PM)100% (Mar 18, 2:50 PM)29.99 "Hg (Mar 18, 2:50 PM)
Low72 °F (Mar 17, 11:50 PM)59% (Mar 18, 12:50 PM)29.71 "Hg (Apr 1, 2:50 PM)
Average81 °F82%29.88 "Hg
* Reported Mar 17 5:52 PM — Apr 1 5:51 PM, Koror, Weather by CustomWeather, © 2015

Note: Actual official high and low records may vary slightly from our data, if they occured in-between our weather recording intervals... More about our weather records

Advertising

Koror weather history for previous 24 hours

 ConditionsComfort  
Time TempWeatherWind HumidityBarometerVisibility
5:51 PM
Wed, Apr 1
82 °FMostly cloudy.13 mph84%29.73 "Hg14 mi
4:50 PM84 °FMostly cloudy.12 mph79%29.72 "Hg14 mi
3:50 PM84 °FMostly cloudy.13 mph79%29.71 "Hg13 mi
2:50 PM86 °FMostly cloudy.13 mph75%29.71 "Hg13 mi
1:50 PM84 °FMostly cloudy.15 mph79%29.73 "Hg13 mi
12:50 PM86 °FPartly sunny.13 mph75%29.75 "Hg13 mi
11:50 AM86 °FMostly cloudy.16 mph75%29.77 "Hg13 mi
10:55 AM86 °FPartly sunny.13 mph75%29.78 "Hg13 mi
9:50 AM84 °FPartly sunny.12 mph79%29.81 "Hg13 mi
8:50 AM84 °FMostly cloudy.10 mph84%29.81 "Hg13 mi
7:53 AM82 °FCloudy.9 mph84%29.81 "Hg14 mi
6:55 AM79 °FMostly cloudy.6 mph94%29.80 "Hg14 mi
5:53 AM79 °FMostly cloudy.6 mph94%29.79 "Hg14 mi
4:51 AM79 °FMostly cloudy.7 mph94%29.78 "Hg14 mi
3:54 AM79 °FMostly cloudy.6 mph94%29.77 "Hg14 mi
2:52 AM79 °FMostly cloudy.7 mph94%29.77 "Hg14 mi
1:53 AM79 °FMostly cloudy.7 mph94%29.79 "Hg14 mi
12:55 AM79 °FMostly cloudy.7 mph94%29.81 "Hg14 mi
11:50 PM
Tue, Mar 31
79 °FMostly cloudy.3 mph94%29.84 "Hg14 mi
10:50 PM79 °FMostly cloudy.5 mph94%29.85 "Hg14 mi
9:50 PM79 °FMostly cloudy.3 mph94%29.84 "Hg14 mi
8:50 PM81 °FMostly cloudy.3 mph84%29.83 "Hg14 mi
7:50 PM81 °FMostly cloudy.3 mph79%29.84 "Hg14 mi
6:50 PM81 °FMostly cloudy.3 mph79%29.82 "Hg14 mi
Weather by CustomWeather, © 2015

See weather overviewHow to use our weather pages